DateTimeUTC,F1_A11,F1_S11,BsB_S11,BsG_S11,BsR_S11,BbsB_S11,BbsG_S11,BbsR_S11,BaB_A11,BaG_A11,BaR_A11,Tu_S11,T_S11,Uu_S11,U_S11,P_S11,T1_A11
2021-03-29T14:00:00Z,00000200,21000000,,,,,,,0000.52,0000.08,0000.37,18.5,25.4,,00.0,0642.1,31.1
2021-03-29T14:01:00Z,00000200,21000000,,,,,,,0000.45,-000.06,0000.27,18.5,25.4,,00.0,0642.1,31.1
2021-03-29T14:02:00Z,00000200,21000000,,,,,,,-000.03,0000.43,-000.03,18.5,25.5,,00.0,0642.1,31.1
2021-03-29T14:03:00Z,00000200,61000000,,,,,,,-000.47,-000.68,-000.15,18.5,25.5,,00.0,0642.1,31.1
2021-03-29T14:04:00Z,00000200,41000000,0000.43,0000.46,0000.15,-000.14,0000.16,0000.30,-001.60,-001.29,-001.26,18.7,25.4,00.2,00.1,0643.0,31.1
2021-03-29T14:05:00Z,00000200,01000000,0000.34,0000.09,0000.08,0000.12,0000.14,0000.23,-001.03,-001.03,-000.77,18.7,25.3,00.0,00.0,0643.2,31.1
2021-03-29T14:06:00Z,00000200,01000000,0000.19,0000.37,0000.02,-000.47,0000.14,-000.05,-000.99,-000.65,-000.69,18.7,25.3,00.0,00.0,0643.2,31.1
2021-03-29T14:07:00Z,00000200,01000000,0000.76,0000.29,-000.05,-000.14,0000.05,0000.13,-000.39,-000.45,-000.24,18.7,25.3,,00.0,0643.2,31.1
2021-03-29T14:08:00Z,00000200,01000000,0000.56,0000.27,-000.01,-000.19,0000.10,0000.20,-000.36,-000.42,-000.06,18.7,25.3,,00.0,0643.2,31.1
2021-03-29T14:09:00Z,00000200,01000000,0000.67,-000.06,0000.26,0000.16,0000.02,0000.30,0000.34,0000.66,0000.75,18.7,25.3,,00.0,0643.2,31.1
2021-03-29T14:10:00Z,00000200,01000000,0000.59,0000.24,0000.25,-000.31,-000.01,0000.21,0001.19,0000.92,-000.10,18.7,25.3,,00.0,0643.2,31.1
2021-03-29T14:11:00Z,00000200,01000000,0000.69,0000.45,0000.25,0000.19,0000.06,-000.12,0000.74,0000.65,0000.91,18.7,25.3,00.0,00.0,0643.2,31.1
2021-03-29T14:12:00Z,00000200,01000000,0000.50,0000.36,-000.01,-000.02,0000.07,-000.11,0000.05,0000.12,-000.23,18.7,25.3,,00.0,0643.2,31.1
2021-03-29T14:13:00Z,00000200,01000000,0000.57,0000.37,0000.12,-000.55,0000.02,0000.25,0000.25,0000.17,0000.32,18.7,25.3,00.0,00.0,0643.2,31.1
2021-03-29T14:14:00Z,00000200,01000000,0000.14,0000.24,0000.20,-000.40,0000.02,0000.13,0000.36,0000.70,0000.55,18.8,25.3,00.0,00.0,0643.2,31.1
2021-03-29T14:15:00Z,00000200,01000000,-000.14,0000.15,0000.08,-000.27,0000.11,-000.00,0000.53,0000.58,0000.08,18.7,25.3,00.0,00.0,0643.2,31.1
2021-03-29T14:16:00Z,00000200,01000000,0000.75,0000.17,0000.07,0000.20,0000.28,0000.27,0000.48,0000.03,0000.33,18.8,25.3,00.1,00.1,0643.2,31.1
2021-03-29T14:17:00Z,00000200,01000000,0000.77,0000.13,0000.16,-000.47,-000.05,0000.17,0001.07,0000.83,0000.66,18.8,25.4,00.1,00.1,0643.2,31.1
2021-03-29T14:18:00Z,00000200,01000000,0000.87,0000.16,0000.25,-000.21,0000.19,0000.14,0000.40,0000.34,0000.44,18.8,25.4,00.2,00.1,0643.2,31.1
2021-03-29T14:19:00Z,00000200,01000000,0000.74,0000.52,0000.14,0000.11,0000.18,-000.16,0000.75,0000.97,0000.35,18.8,25.4,00.2,00.1,0643.2,31.1
2021-03-29T14:20:00Z,00000200,01000000,0000.39,0000.32,0000.14,-000.08,-000.10,-000.08,0000.40,0000.26,0000.91,18.8,25.4,00.3,00.2,0643.3,31.1
2021-03-29T14:21:00Z,00000200,01000000,0001.08,0000.22,0000.20,0000.11,0000.31,-000.16,0000.37,0000.29,-000.02,18.8,25.4,00.4,00.3,0643.3,31.1
2021-03-29T14:22:00Z,00000200,01000000,0000.27,0000.15,0000.24,0000.26,0000.11,-000.18,0000.36,0000.18,0000.15,18.8,25.4,00.6,00.4,0643.2,31.1
2021-03-29T14:23:00Z,00000200,01000000,0000.47,0000.54,0000.27,0000.10,0000.11,0000.02,0000.18,0000.07,0000.06,18.8,25.4,00.5,00.4,0643.2,31.1
2021-03-29T14:24:00Z,00000200,01000000,0000.11,0000.14,0000.08,-000.11,0000.02,-000.06,0000.72,0000.87,0000.25,18.8,25.4,00.5,00.4,0643.2,31.1
2021-03-29T14:25:00Z,00000200,01000000,0000.72,0000.31,0000.10,-000.06,0000.20,-000.16,0000.96,0000.41,0000.82,18.8,25.4,00.7,00.5,0643.2,31.1
2021-03-29T14:26:00Z,00000200,01000000,0000.50,0000.24,0000.53,-000.22,-000.05,0000.25,0000.96,0001.63,0000.65,18.8,25.4,01.0,00.6,0643.1,31.1
2021-03-29T14:27:00Z,00000200,01000000,0000.57,0000.20,0000.08,-000.19,0000.23,-000.06,0001.56,0001.02,0000.96,18.9,25.4,01.2,00.8,0643.1,31.1
2021-03-29T14:28:00Z,00000200,01000000,0000.23,0000.22,-000.08,0000.04,0000.17,-000.08,0000.85,0000.78,0001.29,18.8,25.4,01.6,01.1,0643.1,31.1
2021-03-29T14:29:00Z,00000200,01000000,0000.79,0000.14,-000.01,0000.54,-000.05,0000.30,0000.56,0000.49,0000.24,18.9,25.4,01.8,01.2,0643.1,31.1
2021-03-29T14:30:00Z,00000200,00000000,0000.58,0000.08,0000.21,-000.02,0000.04,0000.09,0000.73,0000.60,0000.06,18.9,25.4,01.9,01.3,0643.1,31.1
2021-03-29T14:31:00Z,00000200,01000000,0000.50,0000.17,0000.34,-000.06,-000.12,-000.20,-001.53,-001.12,-000.93,18.9,25.4,01.9,01.3,0643.2,31.1
2021-03-29T14:32:00Z,00000200,01000000,0000.76,0000.38,0000.10,-000.10,0000.10,0000.15,-000.66,-000.51,-000.38,18.9,25.4,01.3,00.9,0643.2,31.1
2021-03-29T14:33:00Z,00000200,01000000,0000.26,0000.30,0000.04,0000.08,0000.12,0000.03,-000.49,-000.51,-000.13,18.9,25.4,01.1,00.7,0643.3,31.1
2021-03-29T14:34:00Z,00000200,01000000,-000.09,0000.13,0000.33,-000.20,0000.03,0000.38,-000.03,-000.17,0000.28,18.9,25.4,01.1,00.7,0643.3,31.1
2021-03-29T14:35:00Z,00000200,01000000,0000.15,0000.30,0000.06,-000.05,0000.09,0000.06,0000.13,0000.10,-000.30,18.9,25.4,01.0,00.6,0643.3,31.1
2021-03-29T14:36:00Z,00000200,01000000,-000.10,0000.31,0000.14,0000.11,0000.24,-000.01,0000.77,0000.49,0000.57,18.9,25.4,01.0,00.7,0643.3,31.1
2021-03-29T14:37:00Z,00000200,01000000,-000.12,0000.35,-000.04,0000.16,0000.13,-000.20,0000.33,0000.72,0000.36,18.9,25.4,01.1,00.8,0643.3,31.1
2021-03-29T14:38:00Z,00000200,01000000,0000.26,0000.32,0000.27,0000.27,0000.01,-000.12,0000.58,-000.16,0000.10,18.9,25.4,01.1,00.8,0643.3,31.1
2021-03-29T14:39:00Z,00000200,01000000,0000.84,0000.45,0000.08,0000.22,-000.10,0000.07,0000.33,0000.56,-000.03,18.9,25.5,01.3,00.9,0643.2,31.1
2021-03-29T14:40:00Z,00000200,01000000,0001.28,0000.38,0000.24,0000.30,0000.05,-000.04,-000.13,0000.16,0000.25,18.9,25.4,01.4,00.9,0643.2,31.1
2021-03-29T14:41:00Z,00000200,01000000,0000.51,0000.25,0000.08,-000.25,-000.04,0000.04,-000.28,0000.06,0000.07,18.9,25.4,01.3,00.9,0643.2,31.1
2021-03-29T14:42:00Z,00000200,01000000,0000.35,0000.08,0000.19,0000.01,0000.10,-000.02,0000.05,-000.00,0000.17,18.9,25.5,01.3,00.8,0643.2,31.1
2021-03-29T14:43:00Z,00000200,01000000,0000.27,0000.32,0000.21,-000.09,-000.08,0000.30,0001.15,0000.55,0000.51,18.9,25.5,01.2,00.8,0643.2,31.1
2021-03-29T14:44:00Z,00000200,01000000,-000.01,0000.19,0000.05,-000.02,-000.00,0000.23,0000.51,0001.02,0000.48,18.9,25.5,01.5,01.0,0643.2,31.1
2021-03-29T14:45:00Z,00000200,01000000,0000.70,0000.46,-000.04,-000.42,-000.12,0000.02,0000.67,0000.34,0000.49,18.9,25.5,01.6,01.1,0643.2,31.1
2021-03-29T14:46:00Z,00000200,01000000,0000.63,0000.42,-000.04,0000.08,-000.11,-000.02,0000.55,0000.40,0000.40,18.9,25.5,01.7,01.1,0643.2,31.1
2021-03-29T14:47:00Z,00000200,01000000,0000.13,0000.26,0000.05,0000.01,0000.06,0000.06,0000.41,-000.04,0000.37,18.9,25.5,01.7,01.2,0643.2,31.1
2021-03-29T14:48:00Z,00000200,00000000,-000.35,-000.04,0000.03,0000.57,0000.10,0000.11,-000.05,0000.88,-000.12,19.0,25.5,02.0,01.3,0643.2,31.1
2021-03-29T14:49:00Z,00000200,01000000,0000.68,0000.52,0000.21,0000.04,0000.13,0000.14,0000.31,-000.48,0000.19,19.0,25.5,01.9,01.3,0643.3,31.1
2021-03-29T14:50:00Z,00000200,01000000,0000.85,0000.34,0000.09,-000.51,0000.04,0000.02,0000.23,0000.49,0000.39,19.0,25.5,01.8,01.2,0643.3,31.1
2021-03-29T14:51:00Z,00000200,01000000,0000.15,-000.01,0000.34,-000.04,0000.05,0000.33,0000.21,0000.34,0000.01,19.0,25.5,01.8,01.2,0643.3,31.1
2021-03-29T14:52:00Z,00000200,01000000,0000.45,0000.17,0000.14,0000.07,-000.01,0000.01,0000.66,0000.56,0000.60,19.0,25.5,01.9,01.3,0643.3,31.1
2021-03-29T14:53:00Z,00000200,00000000,0000.85,0000.18,-000.18,0000.13,0000.20,-000.04,0001.74,0001.23,0000.84,19.0,25.5,02.2,01.5,0643.3,31.1
2021-03-29T14:54:00Z,00000200,00000000,0000.87,0000.25,0000.33,-000.14,0000.08,0000.16,0001.51,0001.57,0001.15,19.0,25.5,02.7,01.8,0643.3,31.1
2021-03-29T14:55:00Z,00000200,00000000,0001.02,0000.12,0000.12,0000.43,-000.00,0000.06,0001.95,0001.26,0001.24,19.0,25.5,03.1,02.1,0643.3,31.1
2021-03-29T14:56:00Z,00000200,00000000,0000.34,0000.29,0000.24,0000.33,0000.20,0000.43,0001.39,0001.47,0001.17,19.0,25.6,03.8,02.6,0643.3,31.1
2021-03-29T14:57:00Z,00000200,40000000,,,,,,,-001.89,-001.55,-001.61,19.0,25.6,04.8,03.2,0643.4,31.1
2021-03-29T14:58:00Z,00000200,60000000,,,,,,,0001.57,0001.51,0001.52,18.8,25.6,03.3,02.1,0642.5,31.1
2021-03-29T14:59:00Z,00000200,20000000,,,,,,,0001.52,0001.27,0001.16,18.8,25.7,03.6,02.3,0642.5,31.1
